Location: Lussas
(44.6119°N, 4.4726°E)
Time: 10:11:36
(UTC+00:00)

Lacrosse 4 Rocket - Visible Passes

Search period start: 29 July 2021 00:00
Search period end: 08 August 2021 00:00
Orbit: 543 x 614 km, 68.0° (Epoch: 28 July)

Date Brightness Start Highest point End Pass type
(mag) Time Alt. Az. Time Alt. Az. Time Alt. Az.
05 Aug 4.5 03:54:40 10° ESE 03:55:39 11° ESE 03:56:38 10° E visible
06 Aug 4.0 03:57:09 10° SSE 03:59:52 17° ESE 04:02:33 10° ENE visible
07 Aug 3.4 04:00:39 10° SSE 04:04:07 26° ESE 04:07:34 10° NE visible
